TimeEST,TemperatureF,Dew PointF,Humidity,Sea Level PressureIn,VisibilityMPH,Wind Direction,Wind SpeedMPH,Gust SpeedMPH,PrecipitationIn,Events,Conditions,WindDirDegrees,DateUTC
12:53 AM,68.0,62.1,81,30.10,10.0,Calm,Calm,-,N/A,,Clear,0,2012-11-04 04:53:00
1:53 AM,68.0,62.1,81,30.09,10.0,NW,3.5,-,N/A,,Partly Cloudy,310,2012-11-04 05:53:00
1:53 AM,66.9,61.0,81,30.08,10.0,Calm,Calm,-,N/A,,Partly Cloudy,0,2012-11-04 06:53:00
2:53 AM,66.9,62.1,84,30.08,10.0,Calm,Calm,-,N/A,,Partly Cloudy,0,2012-11-04 07:53:00
3:53 AM,66.9,62.1,84,30.07,10.0,Calm,Calm,-,N/A,,Partly Cloudy,0,2012-11-04 08:53:00
4:53 AM,66.0,63.0,90,30.07,10.0,Calm,Calm,-,N/A,,Clear,0,2012-11-04 09:53:00
5:53 AM,64.9,62.1,90,30.08,10.0,NNW,4.6,-,N/A,,Partly Cloudy,330,2012-11-04 10:53:00
6:53 AM,64.9,59.0,81,30.10,10.0,NNW,3.5,-,N/A,,Partly Cloudy,330,2012-11-04 11:53:00
7:53 AM,70.0,60.1,71,30.11,10.0,NNW,3.5,-,N/A,,Partly Cloudy,340,2012-11-04 12:53:00
8:53 AM,73.0,62.1,68,30.12,10.0,NW,3.5,-,N/A,,Partly Cloudy,310,2012-11-04 13:53:00
9:53 AM,77.0,63.0,62,30.11,10.0,North,3.5,-,N/A,,Partly Cloudy,360,2012-11-04 14:53:00
10:53 AM,79.0,62.1,56,30.10,10.0,ESE,6.9,-,N/A,,Partly Cloudy,120,2012-11-04 15:53:00
11:53 AM,79.0,61.0,54,30.08,10.0,ENE,5.8,-,N/A,,Scattered Clouds,60,2012-11-04 16:53:00
12:53 PM,80.1,62.1,54,30.04,10.0,ESE,6.9,-,N/A,,Scattered Clouds,110,2012-11-04 17:53:00
1:53 PM,80.1,61.0,52,30.03,10.0,ENE,10.4,-,N/A,,Scattered Clouds,70,2012-11-04 18:53:00
2:53 PM,79.0,61.0,54,30.02,10.0,ESE,6.9,-,N/A,,Scattered Clouds,110,2012-11-04 19:53:00
3:53 PM,78.1,62.1,58,30.02,10.0,East,5.8,-,N/A,,Scattered Clouds,90,2012-11-04 20:53:00
4:53 PM,77.0,62.1,60,30.01,10.0,East,8.1,-,N/A,,Partly Cloudy,90,2012-11-04 21:53:00
5:53 PM,73.9,62.1,66,30.01,10.0,SE,4.6,-,N/A,,Partly Cloudy,130,2012-11-04 22:53:00
6:53 PM,73.0,62.1,68,30.02,10.0,SSE,3.5,-,N/A,,Partly Cloudy,150,2012-11-04 23:53:00
7:53 PM,72.0,62.1,71,30.03,10.0,SSE,3.5,-,N/A,,Partly Cloudy,160,2012-11-05 00:53:00
8:53 PM,71.1,63.0,75,30.04,10.0,Calm,Calm,-,N/A,,Partly Cloudy,0,2012-11-05 01:53:00
9:53 PM,71.1,63.0,75,30.03,10.0,Calm,Calm,-,N/A,,Partly Cloudy,0,2012-11-05 02:53:00
10:53 PM,69.1,63.0,81,30.03,10.0,SSW,3.5,-,N/A,,Partly Cloudy,200,2012-11-05 03:53:00